sat.trackr.live / text

‹ back to catalog

STARLINK-3197

NORAD 49757 · 2021-115AK

PAYLOAD ACTIVE UNKNOWN

§ Identity

Operator
Country
US
Launch date
2021-12-02
Launch site
AFETR
Launch vehicle
Mass (kg)
RCS (m²)

Purposes: comms

External: N2YO · Heavens-Above · Gunter

§ Orbital elements

Epoch: 2026-09-19T21:49:11.009280Z

Period
93.90 min
Inclination
53.1618°
Eccentricity
0.0001271
Mean motion
15.33544313 rev/d
Perigee alt
464.4 km
Apogee alt
466.1 km
Semi-major
6,843.4 km
B*
5.3928e-5
RAAN
332.6989°
Arg perigee
86.5609°
Mean anomaly
273.5538°
Rev number
26,519

§ Raw data

STARLINK-31971 49757U 21115AK  26262.90915520  .00001401  00000+0  53928-4 0  99972 49757  53.1618 332.6989 0001271  86.5609 273.5538 15.33544313265191

JSON: /api/v1/satellites/49757 · /tle

For live sub-satellite position, see the globe view (requires WebGL).

§ Visibility from observer

Set your observer location to see the next 7 days of passes ≥ 10°. The values pass through the URL so the page stays shareable.

No JS? Fill the form by hand. The geolocation button needs JavaScript.